OK2DDS-5 Weather Reports


time (UTC)temp
C
wind
direction
speed
KPH
gust
KPH
rain 1hr
cm
rain 24hr
cm
rain mn
cm
humidity
%
barometer
mb
20260506175006 23 0 1.6 12.9 0.00 0.00 0.00 996.0
20260506173506 23 0 1.6 25.7 0.00 0.00 0.00 996.0
20260506172006 24 0 1.6 16.1 0.00 0.00 0.00 996.0
20260506170506 25 0 1.6 16.1 0.00 0.00 0.00 996.0
20260506165006 26 0 1.6 16.1 0.00 0.00 0.00 996.0
20260506163506 27 0 1.6 16.1 0.00 0.00 0.00 996.0
20260506162628 28 0 1.6 19.3 0.00 0.00 0.00 996.0
20260506162006 28 0 1.6 19.3 0.00 0.00 0.00 996.0
20260506160506 29 0 1.6 17.7 0.00 0.00 0.00 996.0
20260506155006 29 0 1.6 12.9 0.00 0.00 0.00 996.0
20260506153506 30 0 1.6 22.5 0.00 0.00 0.00 997.0
20260506152006 30 0 1.6 12.9 0.00 0.00 0.00 997.0
20260506150506 29 0 1.6 17.7 0.00 0.00 0.00 997.0
20260506145006 27 0 1.6 16.1 0.00 0.00 0.00 997.0
20260506143506 28 0 1.6 19.3 0.00 0.00 0.00 997.0
20260506142006 28 0 1.6 14.5 0.00 0.00 0.00 997.0
20260506140506 28 0 1.6 20.9 0.00 0.00 0.00 998.0
20260506135006 28 0 1.6 14.5 0.00 0.00 0.00 998.0
20260506133506 28 0 1.6 20.9 0.00 0.00 0.00 998.0
20260506132006 26 0 1.6 17.7 0.00 0.00 0.00 998.0
20260506130506 28 0 1.6 11.3 0.00 0.00 0.00 998.0
20260506125006 28 0 1.6 16.1 0.00 0.00 0.00 998.0
20260506123506 31 0 1.6 16.1 0.00 0.00 0.00 998.0
20260506122006 32 0 0.0 14.5 0.00 0.00 0.00 999.0
20260506120506 30 0 0.0 11.3 0.00 0.00 0.00 999.0
20260506115006 29 0 0.0 16.1 0.00 0.00 0.00 999.0
20260506113506 28 0 1.6 14.5 0.00 0.00 0.00 999.0
20260506112006 30 0 1.6 11.3 0.00 0.00 0.00 999.0
20260506110506 28 0 1.6 41.8 0.00 0.00 0.00 999.0
20260506105006 29 0 1.6 9.7 0.00 0.00 0.00 999.0
20260506103506 31 0 0.0 9.7 0.00 0.00 0.00 1000.0
20260506102006 31 0 0.0 11.3 0.00 0.00 0.00 1000.0
20260506100506 30 0 1.6 49.9 0.00 0.00 0.00 1000.0
20260506095006 27 0 1.6 12.9 0.00 0.00 0.00 1000.0
20260506093506 24 0 1.6 14.5 0.00 0.00 0.00 1000.0
20260506092006 23 0 1.6 14.5 0.00 0.00 0.00 1000.0
20260506090506 23 0 1.6 16.1 0.00 0.00 0.00 1000.0
20260506085006 22 0 1.6 19.3 0.00 0.00 0.00 1000.0
20260506083506 22 0 1.6 17.7 0.00 0.00 0.00 1001.0
20260506082006 21 0 1.6 11.3 0.00 0.00 0.00 1001.0
20260506080506 21 0 0.0 12.9 0.00 0.00 0.00 1001.0
20260506073506 20 0 1.6 16.1 0.00 0.00 0.00 1001.0
20260506072006 20 0 1.6 22.5 0.00 0.00 0.00 1001.0
20260506070506 19 0 1.6 19.3 0.00 0.00 0.00 1001.0
20260506062006 17 0 0.0 14.5 0.00 0.00 0.00 1001.0
20260506050505 14 0 1.6 27.4 0.00 0.00 0.00 1001.0
20260506045005 13 0 1.6 27.4 0.00 0.00 0.00 1000.0
20260506043505 13 0 1.6 41.8 0.00 0.00 0.00 1000.0
20260506042005 13 0 1.6 38.6 0.00 0.00 0.00 1000.0
20260506040505 13 0 1.6 66.0 0.00 0.00 0.00 1000.0
20260506035005 14 0 1.6 24.1 0.00 0.00 0.00 1000.0
20260506033505 14 0 1.6 37.0 0.00 0.00 0.00 1000.0
20260506032005 14 0 0.0 41.8 0.00 0.00 0.00 1000.0
20260506030505 14 0 0.0 62.8 0.00 0.00 0.00 1000.0
20260506025005 15 0 0.0 59.5 0.00 0.00 0.00 999.0
20260506023505 15 0 0.0 25.7 0.00 0.00 0.00 999.0
20260506022005 15 0 0.0 59.5 0.00 0.00 0.00 1000.0
20260506020505 15 0 0.0 41.8 0.00 0.00 0.00 999.0
20260506015005 15 0 1.6 38.6 0.00 0.00 0.00 999.0
20260506013505 15 0 1.6 49.9 0.00 0.00 0.00 999.0
20260506012005 16 0 1.6 54.7 0.00 0.00 0.00 999.0
20260506010505 16 0 1.6 74.0 0.00 0.00 0.00 999.0
20260506005005 16 0 1.6 49.9 0.00 0.00 0.00 999.0
20260506003505 16 0 0.0 29.0 0.00 0.00 0.00 998.0
20260506002005 17 0 0.0 20.9 0.00 0.00 0.00 998.0
20260506000505 17 0 0.0 19.3 0.00 0.00 0.00 998.0
20260505235005 17 0 0.0 33.8 0.00 0.00 0.00 998.0
20260505233505 17 0 0.0 29.0 0.00 0.00 0.00 998.0
20260505232005 18 0 0.0 85.3 0.00 0.00 0.00 998.0
20260505230505 18 0 0.0 17.7 0.00 0.00 0.00 998.0
20260505225005 18 0 0.0 14.5 0.00 0.00 0.00 998.0
20260505223505 18 0 0.0 12.9 0.00 0.00 0.00 998.0
20260505222005 18 0 0.0 40.2 0.00 0.00 0.00 998.0
20260505220505 18 0 0.0 17.7 0.00 0.00 0.00 998.0
20260505215005 18 0 0.0 30.6 0.00 0.00 0.00 998.0
20260505213505 18 0 0.0 25.7 0.00 0.00 0.00 998.0
20260505212005 18 0 0.0 19.3 0.00 0.00 0.00 998.0
20260505210505 18 0 0.0 35.4 0.00 0.00 0.00 998.0
20260505205005 18 0 0.0 29.0 0.00 0.00 0.00 998.0
20260505203505 18 0 0.0 22.5 0.00 0.00 0.00 998.0
20260505202005 18 0 0.0 24.1 0.00 0.00 0.00 998.0
20260505200505 19 0 0.0 14.5 0.00 0.00 0.00 998.0
20260505195005 19 0 0.0 11.3 0.00 0.00 0.00 998.0
20260505193505 20 0 0.0 14.5 0.00 0.00 0.00 998.0
20260505192005 20 0 0.0 17.7 0.00 0.00 0.00 998.0
20260505190505 20 0 0.0 25.7 0.00 0.00 0.00 998.0
20260505185005 21 0 0.0 119.1 0.00 0.00 0.00 998.0
20260505183505 21 0 0.0 0.0 0.00 0.00 0.00 998.0
20260505183129 21 0 0.0 17.7 0.00 0.00 0.00 998.0
20260505181628 22 0 0.0 12.9 0.00 0.00 0.00 998.0
20260505180129 22 0 0.0 20.9 0.00 0.00 0.00 998.0